Terug naar catalogus

CZ-4 DEB

ActiefSSO
NORAD 26300·DEBRIS·🇨🇳 China

Gelanceerd Oct 14, 1999 vanaf Taiyuan Satellite Launch Center

Loading…

Volgende Passages (komende 24 uur)

TLE

VersSource: Space-Track

Epoch: Sep 14, 2026, 11:09 UTC

1 26300U 99057GL  26257.46511693  .00002143  00000-0  35699-3 0  9993
2 26300  98.3495 329.6152 0057125 325.4214  46.8329 14.70068806399249

Volg CZ-4 DEB in realtime met AllMySat

Download on the App Store